Location: Clifton Park
(41.4873°N, 81.8024°W)
Time: 19:51:08
(UTC+00:00)

BREEZE M DEB (TANK) - Pass Details

Date: 21 January 2020
Orbit: 321 x 13662 km, 49.6° (Epoch: 21 February)

Event Time Altitude Azimuth Distance (km) Brightness Sun altitude
Exits shadow 11:00:03 72° 22° (NNE) 431 2.2 -20.1°
Drops below altitude 10° 11:03:51 10° 58° (ENE) 2,172 6.5 -19.4°
Sets 11:07:40 0° 60° (ENE) 4,057 8.0 -18.7°
